Regional Weather Roundup
Issued by NWS

Home | Current Version | Previous Version | Text Only | Print | Product List | Glossary On
Versions: 1 2 3 4 5 6 7 8 9 10 11 12 13 14 15 16 17 18 19 20 21 22 23 24 25 26 27 28 29 30 31 32 33 34 35 36 37 38 39 40 41 42 43 44 45 46 47 48 49 50
000
ASUS42 KKEY 011410
RWRKEY

FLORIDA REGIONAL WEATHER ROUNDUP FOR THE FLORIDA KEYS
NATIONAL WEATHER SERVICE KEY WEST FLORIDA
900 AM EST SUN FEB 01 2015

...SOUTH FLORIDA AND THE KEYS...

CITY           SKY/WX    TMP DP  RH WIND       PRES   REMARKS
FORT MYERS     SUNNY     62  53  72 E8        30.22S
SW REGIONAL AP SUNNY     61  53  75 E8        30.23R
NAPLES         SUNNY     63  53  70 E9        30.21S
MIAMI          MOSUNNY   71  53  52 E13       30.22S
WEST KENDALL   MOSUNNY   71  55  56 E14       30.22S
HOMESTEAD      SUNNY     70  56  60 E10       30.22S
MARATHON       PTSUNNY   71  57  61 E10       30.19S
BOCA CHICA NAS PTSUNNY   69  59  70 E8        30.18R
KEY WEST INTL  CLOUDY    68  59  73 NE8       30.18S

...INTERNATIONAL WEATHER...

CITY           SKY/WX    TMP DP  RH WIND       PRES   REMARKS
NASSAU BAHAMAS MOSUNNY   70  54  56 E7        30.24R
CANCUN MEXICO  NOT AVBL
COZUMEL MEXICO PTSUNNY   66  64  94 CALM      30.06R

ADJACENT COASTAL WATERS...

STATION/POSITION TIME  SKY/WX   TEMP    WIND        PRES    WAVE
                                AIR SEA DIR/SP/G            HT/PER
                 (UTC)          (F)     (DEG/KT/KT) (MB)    (FT/S)
PULASKI SHOAL LI NOT AVBL
SAND KEY         NOT AVBL
SOMBRERO KEY     NOT AVBL
LONG KEY         NOT AVBL
MOLASSES REEF    NOT AVBL
FOWEY ROCKS      NOT AVBL
Buoy 42080       NOT AVBL

$$


USA.gov is the U.S. government's official web portal to all federal, state and local government web resources and services.